sat.trackr.live / text

‹ back to catalog

TOMORROW-R2

NORAD 56962 · 2023-084AG

PAYLOAD ACTIVE UNKNOWN

§ Identity

Operator
Country
US
Launch date
2023-06-12
Launch site
AFWTR
Launch vehicle
Mass (kg)
RCS (m²)

External: N2YO · Heavens-Above · Gunter

§ Orbital elements

Epoch: 2026-05-24T22:55:40.855872Z

Period
90.44 min
Inclination
97.5937°
Eccentricity
0.0003663
Mean motion
15.92154177 rev/d
Perigee alt
293.8 km
Apogee alt
298.7 km
Semi-major
6,674.4 km
B*
6.0586e-4
RAAN
306.0955°
Arg perigee
259.1202°
Mean anomaly
100.9659°
Rev number
16,534

§ Raw data

TOMORROW-R21 56962U 23084AG  26144.95533398  .00200449  17170-4  60586-3 0  99942 56962  97.5937 306.0955 0003663 259.1202 100.9659 15.92154177165348

JSON: /api/v1/satellites/56962 · /tle

For live sub-satellite position, see the globe view (requires WebGL).

§ Visibility from observer

Set your observer location to see the next 7 days of passes ≥ 10°. The values pass through the URL so the page stays shareable.

No JS? Fill the form by hand. The geolocation button needs JavaScript.

§ Radio — SatNOGS DB

ModeDescriptionDownlinkUplink
FSK Telemetry 400.500 MHz

1 transmitter · refreshed weekly from db.satnogs.org